Location: *
(52.2090°N, 4.1550°W)
Time: 20:22:25
(UTC+00:00)

Helios 1B rocket - Pass Details

Date: 19 July 2019
Orbit: 576 x 583 km, 98.2° (Epoch: 18 August)

Event Time Altitude Azimuth Distance (km) Brightness Sun altitude
Rises 22:37:29 0° 26° (NNE) 2,822 6.5 -13.5°
Reaches altitude 10° 22:40:07 10° 43° (NE) 1,916 5.4 -13.7°
Maximum altitude 22:43:16 21° 92° (E) 1,350 4.0 -13.9°
Enters shadow 22:44:45 17° 121° (ESE) 1,492 4.0 -13.9°
